Weather History for Hutchinson, MN

Change the Weather History Date:

Monday, April 14, 2014

  Actual Average Record
Temperature  
Mean Temperature 30 °F -  
Max Temperature 35 °F 53 °F 89 °F (2003)
Min Temperature 23 °F 35 °F 23 °F (2014)
Degree Days  
Heating Degree Days 36    
Moisture  
Dew Point 14 °F    
Average Humidity 52    
Maximum Humidity 68    
Minimum Humidity 37    
Precipitation  
Precipitation 0.00 in - - ()
Sea Level Pressure  
Sea Level Pressure 30.08 in    
Wind  
Wind Speed 19 mph (NNW)    
Max Wind Speed 25 mph    
Max Gust Speed 34 mph    
Visibility 10 miles    
Events      
Averages and records for this station are not official NWS values.
T = Trace of Precipitation, MM = Missing Value Source: NWS Daily Summary

Daily Weather History Graph

Daily Weather History Graph

Search for Another Location

Airport:

Trip Planner

Search our weather history database for the weather conditions in past years. The results will help you decide how hot, cold, wet, or windy it might be!

Date:

Astronomy

Apr. 14, 2014 Rise Set
Actual Time 6:34 AM CDT 8:01 PM CDT
Civil Twilight 6:04 AM CDT 8:32 PM CDT
Nautical Twilight 5:27 AM CDT 9:09 PM CDT
Astronomical Twilight 4:48 AM CDT 9:48 PM CDT
Moon 7:40 PM CDT (4/14) 6:09 AM CDT (4/14)
Length of Visible Light 14h 27m
Length of Day
13h 26m
Full, 100% of the Moon is Illuminated
Apr 14
Full
Apr 15
Full
Apr 22
Last Quarter
Apr 29
New
May 6
First Quarter

Hourly Weather History & Observations

Time (CDT) Temp. Windchill Dew Point Humidity Pressure Visibility Wind Dir Wind Speed Gust Speed Precip Events Conditions
12:13 AM 32.2 °F 20.4 °F 22.6 °F 68% 29.98 in 10.0 mi NNW 19.6 mph 33.4 mph N/A   Scattered Clouds
12:32 AM 32.2 °F 20.7 °F 22.6 °F 68% 29.98 in 10.0 mi NNW 18.4 mph 28.8 mph N/A   Clear
12:53 AM 32.2 °F 20.4 °F 22.6 °F 68% 29.99 in 10.0 mi NNW 19.6 mph 28.8 mph N/A   Clear
1:13 AM 32.2 °F 20.0 °F 22.5 °F 67% 29.98 in 10.0 mi North 20.7 mph 27.6 mph N/A   Clear
1:33 AM 32.0 °F 18.6 °F 21.4 °F 65% 29.98 in 10.0 mi NNW 25.3 mph 33.4 mph N/A   Clear
1:53 AM 31.8 °F 19.9 °F 20.5 °F 63% 29.98 in 10.0 mi North 19.6 mph 31.1 mph N/A   Clear
2:13 AM 31.5 °F 20.9 °F 20.3 °F 63% 29.99 in 10.0 mi North 15.0 mph 27.6 mph N/A   Clear
2:33 AM 30.7 °F 20.4 °F 19.9 °F 64% 29.98 in 10.0 mi North 13.8 mph 25.3 mph N/A   Clear
2:53 AM 30.2 °F 18.5 °F 19.6 °F 65% 29.99 in 10.0 mi NNW 17.3 mph 33.4 mph N/A   Clear
3:13 AM 29.7 °F 17.8 °F 19.0 °F 65% 29.98 in 10.0 mi North 17.3 mph 33.4 mph N/A   Clear
3:33 AM 29.3 °F 17.0 °F 18.5 °F 64% 29.99 in 10.0 mi North 18.4 mph 25.3 mph N/A   Clear
3:53 AM 28.4 °F 14.1 °F 18.1 °F 65% 29.98 in 10.0 mi NNW 24.2 mph 31.1 mph N/A   Clear
4:13 AM 28.2 °F 14.5 °F 17.6 °F 64% 29.99 in 10.0 mi NNW 21.9 mph 29.9 mph N/A   Clear
4:33 AM 27.5 °F 13.9 °F 16.5 °F 63% 29.99 in 10.0 mi NNW 20.7 mph 29.9 mph N/A   Clear
4:53 AM 27.5 °F 13.2 °F 16.5 °F 63% 30.00 in 10.0 mi NNW 23.0 mph 29.9 mph N/A   Clear
5:13 AM 27.1 °F 14.1 °F 16.7 °F 65% 30.00 in 10.0 mi NNW 18.4 mph 24.2 mph N/A   Clear
5:33 AM 26.6 °F 14.3 °F 17.4 °F 68% 30.01 in 10.0 mi NNW 16.1 mph 26.5 mph N/A   Clear
5:53 AM 26.6 °F 12.4 °F 17.4 °F 68% 30.03 in 10.0 mi NNW 21.9 mph 28.8 mph N/A   Clear
6:13 AM 26.6 °F 13.8 °F 16.9 °F 67% 30.02 in 10.0 mi NNW 17.3 mph 26.5 mph N/A   Clear
6:33 AM 26.4 °F 12.5 °F 16.0 °F 65% 30.05 in 10.0 mi NNW 20.7 mph 28.8 mph N/A   Clear
6:53 AM 26.2 °F 11.9 °F 15.4 °F 64% 30.05 in 10.0 mi NNW 21.9 mph 33.4 mph N/A   Clear
7:13 AM 26.2 °F 13.8 °F 15.4 °F 64% 30.06 in 10.0 mi NNW 16.1 mph 28.8 mph N/A   Clear
7:33 AM 26.6 °F 12.7 °F 16.0 °F 64% 30.07 in 10.0 mi NNW 20.7 mph 27.6 mph N/A   Clear
7:53 AM 26.6 °F 14.7 °F 15.4 °F 63% 30.08 in 10.0 mi North 15.0 mph 23.0 mph N/A   Clear
8:13 AM 27.0 °F 13.5 °F 14.4 °F 59% 30.09 in 10.0 mi NNW 19.6 mph 31.1 mph N/A   Clear
8:33 AM 27.0 °F 12.8 °F 14.0 °F 58% 30.10 in 10.0 mi NW 21.9 mph 31.1 mph N/A   Clear
8:53 AM 26.6 °F 13.4 °F 13.6 °F 58% 30.10 in 10.0 mi NNW 18.4 mph 27.6 mph N/A   Clear
9:13 AM 29.1 °F 15.4 °F 13.8 °F 53% 30.10 in 10.0 mi NNW 23.0 mph 31.1 mph N/A   Clear
9:33 AM 30.2 °F 17.4 °F 14.4 °F 52% 30.09 in 10.0 mi NNW 20.7 mph 29.9 mph N/A   Clear
9:53 AM 29.7 °F 15.8 °F 13.6 °F 51% 30.10 in 10.0 mi NNW 24.2 mph 29.9 mph N/A   Clear
10:13 AM 30.4 °F 17.3 °F 13.8 °F 50% 30.10 in 10.0 mi NNW 21.9 mph 28.8 mph N/A   Clear
10:33 AM 31.3 °F 18.9 °F 13.3 °F 47% 30.11 in 10.0 mi NW 20.7 mph 27.6 mph N/A   Clear
10:53 AM 32.0 °F 19.5 °F 11.5 °F 43% 30.11 in 10.0 mi NNW 21.9 mph 31.1 mph N/A   Clear
11:13 AM 32.9 °F 21.3 °F 12.9 °F 44% 30.11 in 10.0 mi NNW 19.6 mph 27.6 mph N/A   Clear
11:33 AM 32.7 °F 21.1 °F 10.0 °F 39% 30.11 in 10.0 mi NNW 19.6 mph 32.2 mph N/A   Clear
11:53 AM 32.7 °F 22.1 °F 10.8 °F 40% 30.12 in 10.0 mi NNW 16.1 mph 32.2 mph N/A   Clear
12:13 PM 33.3 °F 21.8 °F 11.7 °F 41% 30.11 in 10.0 mi NNW 19.6 mph 28.8 mph N/A   Scattered Clouds
12:33 PM 33.3 °F 21.5 °F 10.8 °F 39% 30.11 in 10.0 mi NNW 20.7 mph 31.1 mph N/A   Scattered Clouds
12:52 PM 34.9 °F 23.3 °F 11.7 °F 38% 30.11 in 10.0 mi NNW 21.9 mph 29.9 mph N/A   Scattered Clouds
1:13 PM 35.1 °F 23.5 °F 13.1 °F 40% 30.11 in 10.0 mi NW 21.9 mph 28.8 mph N/A   Scattered Clouds
1:33 PM 34.9 °F 24.2 °F 12.0 °F 39% 30.10 in 10.0 mi NW 18.4 mph 27.6 mph N/A   Scattered Clouds
1:53 PM 35.2 °F 24.1 °F 12.4 °F 39% 30.11 in 10.0 mi NW 20.7 mph 27.6 mph N/A   Scattered Clouds
2:12 PM 34.0 °F 23.8 °F 10.0 °F 37% 30.11 in 10.0 mi NW 16.1 mph 27.6 mph N/A   Mostly Cloudy
2:33 PM 35.2 °F 25.0 °F 11.1 °F 37% 30.11 in 10.0 mi NW 17.3 mph 28.8 mph N/A   Mostly Cloudy
2:53 PM 35.4 °F 24.0 °F 11.5 °F 37% 30.10 in 10.0 mi NW 21.9 mph 28.8 mph N/A   Mostly Cloudy
3:12 PM 34.0 °F 23.4 °F 10.4 °F 38% 30.10 in 10.0 mi NNW 17.3 mph 28.8 mph N/A   Mostly Cloudy
3:33 PM 35.1 °F 23.8 °F 11.3 °F 37% 30.10 in 10.0 mi NW 20.7 mph 34.5 mph N/A   Mostly Cloudy
3:53 PM 34.2 °F 22.6 °F 10.8 °F 38% 30.09 in 10.0 mi NW 20.7 mph 29.9 mph N/A   Mostly Cloudy
4:13 PM 33.3 °F 21.5 °F 10.8 °F 39% 30.09 in 10.0 mi NW 20.7 mph 31.1 mph N/A   Mostly Cloudy
4:33 PM 34.5 °F 23.1 °F 12.0 °F 39% 30.09 in 10.0 mi NW 20.7 mph 27.6 mph N/A   Scattered Clouds
4:53 PM 33.3 °F 21.2 °F 10.9 °F 40% 30.09 in 10.0 mi NW 21.9 mph 27.6 mph N/A   Mostly Cloudy
5:13 PM 32.9 °F 20.7 °F 11.1 °F 40% 30.09 in 10.0 mi NNW 21.9 mph 31.1 mph N/A   Scattered Clouds
5:33 PM 32.2 °F 20.4 °F 12.4 °F 44% 30.09 in 10.0 mi NW 19.6 mph 24.2 mph N/A   Scattered Clouds
5:53 PM 34.7 °F 24.0 °F 12.2 °F 39% 30.09 in 10.0 mi NW 18.4 mph 25.3 mph N/A   Mostly Cloudy
6:13 PM 34.5 °F 23.1 °F 13.3 °F 42% 30.09 in 10.0 mi WNW 20.7 mph 28.8 mph N/A   Mostly Cloudy
6:33 PM 33.6 °F 22.9 °F 10.8 °F 39% 30.09 in 10.0 mi NW 17.3 mph 24.2 mph N/A   Mostly Cloudy
6:53 PM 32.5 °F 22.7 °F 11.5 °F 42% 30.10 in 10.0 mi NW 13.8 mph 19.6 mph N/A   Scattered Clouds
7:13 PM 32.0 °F 19.8 °F 9.3 °F 39% 30.10 in 10.0 mi NW 20.7 mph 27.6 mph N/A   Clear
7:33 PM 31.5 °F 20.9 °F 11.7 °F 44% 30.11 in 10.0 mi NW 15.0 mph 24.2 mph N/A   Clear
7:53 PM 30.2 °F 19.3 °F 12.0 °F 47% 30.11 in 10.0 mi NW 15.0 mph 19.6 mph N/A   Clear
8:13 PM 29.7 °F 19.6 °F 11.7 °F 47% 30.12 in 10.0 mi NNW 12.7 mph 21.9 mph N/A   Clear
8:33 PM 29.1 °F 17.5 °F 12.7 °F 50% 30.12 in 10.0 mi NW 16.1 mph 19.6 mph N/A   Clear
8:53 PM 28.6 °F 17.7 °F 12.7 °F 52% 30.13 in 10.0 mi NW 13.8 mph - N/A   Scattered Clouds
9:13 PM 28.0 °F 18.1 °F 14.0 °F 56% 30.13 in 10.0 mi NNW 11.5 mph - N/A   Clear
9:33 PM 28.0 °F 17.5 °F 13.6 °F 55% 30.14 in 10.0 mi NNW 12.7 mph 20.7 mph N/A   Clear
9:53 PM 27.3 °F 15.2 °F 14.9 °F 60% 30.14 in 10.0 mi NNW 16.1 mph 19.6 mph N/A   Clear
10:13 PM 26.6 °F 14.3 °F 14.4 °F 60% 30.14 in 10.0 mi NW 16.1 mph 25.3 mph N/A   Clear
10:33 PM 26.2 °F 15.2 °F 14.9 °F 62% 30.14 in 10.0 mi NW 12.7 mph - N/A   Clear
10:53 PM 25.7 °F 11.9 °F 12.4 °F 57% 30.14 in 10.0 mi NW 19.6 mph 25.3 mph N/A   Clear
11:13 PM 24.8 °F 12.9 °F 10.6 °F 55% 30.15 in 10.0 mi NW 13.8 mph 24.2 mph N/A   Clear
11:33 PM 24.3 °F 11.2 °F 10.9 °F 57% 30.15 in 10.0 mi NW 16.1 mph 19.6 mph N/A   Clear
11:53 PM 23.7 °F 11.0 °F 10.8 °F 58% 30.15 in 10.0 mi NW 15.0 mph - N/A   Clear